Lake Isabella Weather Center

Moon Phase Calendar



Lake Isabella Water Level
Online Cameras

 


      

Current Conditions in Wofford Heights
9/25/2022 1:31:01 AM

66°F
Feels Like 65
Clear
Humidity
56%
Pressure
30.36"
Wind
1 mph (SW)
Dew Point
50°F
UV Index
0/10 (Low)
Visibility
6 mi

Hourly Forecast

Date & Time Sun, Sep 25
1:00 AM
Sun, Sep 25
2:00 AM
Sun, Sep 25
3:00 AM
Sun, Sep 25
4:00 AM
Sun, Sep 25
5:00 AM
Sun, Sep 25
6:00 AM
Sun, Sep 25
7:00 AM
Sun, Sep 25
8:00 AM
Sun, Sep 25
9:00 AM
Sun, Sep 25
10:00 AM
Sun, Sep 25
11:00 AM
Sun, Sep 25
12:00 PM
Sun, Sep 25
1:00 PM
Sun, Sep 25
2:00 PM
Sun, Sep 25
3:00 PM
Sun, Sep 25
4:00 PM
Sun, Sep 25
5:00 PM
Sun, Sep 25
6:00 PM
Sun, Sep 25
7:00 PM
Sun, Sep 25
8:00 PM
Sun, Sep 25
9:00 PM
Sun, Sep 25
10:00 PM
Sun, Sep 25
11:00 PM
Mon, Sep 26
12:00 AM
Mon, Sep 26
1:00 AM
Mon, Sep 26
2:00 AM
Mon, Sep 26
3:00 AM
Mon, Sep 26
4:00 AM
Mon, Sep 26
5:00 AM
Mon, Sep 26
6:00 AM
Mon, Sep 26
7:00 AM
Mon, Sep 26
8:00 AM
Mon, Sep 26
9:00 AM
Mon, Sep 26
10:00 AM
Mon, Sep 26
11:00 AM
Mon, Sep 26
12:00 PM
Mon, Sep 26
1:00 PM
Mon, Sep 26
2:00 PM
Mon, Sep 26
3:00 PM
Mon, Sep 26
4:00 PM
Mon, Sep 26
5:00 PM
Mon, Sep 26
6:00 PM
Mon, Sep 26
7:00 PM
Mon, Sep 26
8:00 PM
Mon, Sep 26
9:00 PM
Mon, Sep 26
10:00 PM
Mon, Sep 26
11:00 PM
Tue, Sep 27
12:00 AM
Condition
Clear

Clear

Clear

Clear

Clear

Clear

Clear

Clear

Clear

Clear

Clear

Clear

Clear

Clear

Clouds

Clouds

Clouds

Clouds

Clear

Clear

Clear

Clear

Clear

Clear

Clear

Clear

Clear

Clear

Clear

Clear

Clear

Clear

Clear

Clear

Clear

Clouds

Clouds

Clouds

Clouds

Clouds

Clouds

Clouds

Clouds

Clouds

Clouds

Clouds

Clouds

Clouds
Temperature 67°F66°F67°F67°F68°F69°F70°F78°F84°F88°F90°F92°F94°F94°F93°F92°F90°F87°F78°F75°F74°F73°F72°F72°F72°F71°F71°F71°F70°F70°F71°F79°F85°F89°F92°F94°F95°F94°F93°F91°F90°F88°F80°F78°F78°F76°F74°F73°F
Feels Like 66°F65°F66°F66°F67°F67°F68°F77°F82°F85°F88°F89°F90°F91°F90°F89°F87°F84°F77°F74°F73°F72°F71°F71°F71°F70°F70°F69°F69°F69°F69°F78°F83°F86°F88°F90°F91°F91°F89°F87°F86°F85°F80°F77°F77°F75°F73°F72°F
Cloudiness 0%0%0%0%0%0%0%0%0%0%0%0%1%8%17%19%20%17%8%6%4%3%3%0%0%2%3%2%3%8%9%10%9%10%10%13%19%24%36%48%53%83%70%67%68%67%62%18%
Visibility 6 mi6 mi6 mi6 mi6 mi6 mi6 mi6 mi6 mi6 mi6 mi6 mi6 mi6 mi6 mi6 mi6 mi6 mi6 mi6 mi6 mi6 mi6 mi6 mi6 mi6 mi6 mi6 mi6 mi6 mi6 mi6 mi6 mi6 mi6 mi6 mi6 mi6 mi6 mi6 mi6 mi6 mi6 mi6 mi6 mi6 mi6 mi6 mi
Precipitation 0%0%0%0%0%0%0%0%0%0%0%0%0%0%0%0%0%0%0%0%0%0%0%0%0%0%0%0%0%0%0%0%0%0%0%0%0%0%0%0%0%0%0%0%0%0%0%0%
Humidity 52%56%52%49%45%42%38%30%26%26%26%24%22%21%21%22%23%27%37%40%41%41%42%42%43%43%43%43%43%43%42%33%26%23%21%19%18%18%19%21%21%23%30%32%32%34%38%37%
Dew Point 49°F50°F49°F48°F46°F45°F38°F39°F42°F45°F46°F46°F45°F44°F44°F44°F44°F44°F44°F44°F44°F43°F43°F43°F43°F43°F43°F42°F42°F42°F42°F42°F42°F42°F42°F41°F40°F40°F41°F41°F40°F41°F41°F41°F41°F41°F41°F40°F
Pressure 30.3"30.36"30.3"30.24"30.18"30.15"30.09"30.09"30.06"30.06"30.03"30"30"29.97"29.94"29.94"29.94"29.97"30"30.03"30.06"30.06"30.06"30.03"30.03"30.03"30"30"30"30"30.03"30.03"30"29.97"29.97"29.94"29.94"29.91"29.91"29.91"29.91"29.91"29.94"29.97"29.97"30"30"30"
Wind Speed 3.4 mph3.6 mph3.7 mph3.8 mph3.7 mph3.7 mph3.8 mph3.1 mph1.9 mph2.8 mph4.2 mph4.6 mph4.9 mph6.2 mph7.5 mph7.4 mph6.9 mph5.7 mph4.4 mph4.4 mph4.2 mph3.8 mph3.8 mph3.9 mph4.1 mph4.2 mph3.9 mph3.2 mph3.3 mph3.7 mph3.8 mph3 mph1.7 mph2.9 mph3.8 mph4.2 mph4.3 mph5.2 mph7.5 mph6.8 mph5.2 mph4 mph3.9 mph4.4 mph4 mph3.2 mph3.2 mph3.8 mph
Wind
Direction
11°
N
13°
NNE
15°
NNE
21°
NNE
28°
NNE
31°
NNE
37°
NE
45°
NE
102°
ESE
153°
SSE
173°
S
186°
S
208°
SSW
226°
SW
234°
SW
243°
WSW
258°
WSW
262°
W
279°
W
320°
NW
340°
NNW
351°
N
358°
N

N

N

N
10°
N
14°
NNE
20°
NNE
26°
NNE
33°
NNE
43°
NE
100°
E
144°
SE
163°
SSE
179°
S
194°
SSW
213°
SSW
239°
WSW
261°
W
285°
WNW
283°
WNW
288°
WNW
322°
NW
332°
NNW
340°
NNW
346°
NNW
354°
N

Daily Forecast

Date High Low Precip. Humidity
Today
Sep 25

Clear
94 °F
66 °F
0%
24%
Monday
Sep 26

Clouds
95 °F
70 °F
0%
19%
Tuesday
Sep 27

Clear
92 °F
71 °F
0%
19%
Wednesday
Sep 28

Clear
92 °F
70 °F
0%
20%
Thursday
Sep 29

Clouds
90 °F
66 °F
0%
19%
Friday
Sep 30

Clear
91 °F
65 °F
0%
14%
Saturday
Oct 1

Clear
90 °F
65 °F
0%
17%
Sunday
Oct 2

Clear
89 °F
64 °F
0%
17%
Monday
Oct 3

Clear
89 °F
64 °F
0%
20%
Tuesday
Oct 4

Clear
86 °F
64 °F
0%
24%
Wednesday
Oct 5

Clear
85 °F
60 °F
0%
21%
Thursday
Oct 6

Clear
88 °F
61 °F
0%
14%
Friday
Oct 7

Clear
87 °F
63 °F
0%
18%
Saturday
Oct 8

Clouds
81 °F
60 °F
0%
29%
Sunday
Oct 9

Clouds
77 °F
55 °F
0%
26%
Monday
Oct 10

Clouds
74 °F
55 °F
0%
42%

Temperature 8-14 Day Outlook



Precipitation 8-14 Day Outlook




Quick Links
Lake Isabella News
Lake Isabella Photos
Lake Isabella Videos




About Us
Contact Us
Site Map
Search Site
Advertise With Us
   
Isabella.USLakes.info
THE LAKE ISABELLA WEBSITE

Copyright 2022, Lakes Online
Privacy    |    Legal